Location: Bemmer
(51.5498°N, 5.6249°E)
Time: 11:10:34
(UTC+00:00)

Cosmos 1689 Rocket - Pass Details

Date: 03 March 2021
Orbit: 350 x 361 km, 97.5° (Epoch: 16 April)

Event Time Altitude Azimuth Distance (km) Brightness Sun altitude
Rises 18:49:02 0° 10° (N) 2,213 5.9 -14.4°
Reaches altitude 10° 18:50:59 10° 7° (N) 1,363 4.9 -14.7°
Maximum altitude 18:53:51 60° 287° (WNW) 428 2.6 -15.1°
Drops below altitude 10° 18:56:42 10° 206° (SSW) 1,360 5.0 -15.5°
Sets 18:58:39 0° 203° (SSW) 2,206 6.1 -15.8°
